CORVUS BC1

Last updated on Wed Oct 29 2025 00:03:53 GMT+0000 (Coordinated Universal Time)

1 42847U 17042Y 25301.50461277 .00005233 00000+0 37822-3 0 9999 2 42847 97.3868 108.1723 0012861 155.3410 204.8435 15.04398555452234
UTC large
Height (km)
Speed (km/s)
/
Latitude / Longitude
Inclination (degrees)
Orbital Period (minutes)
Azimuth
Elevation
Range (km)
Doppler Factor

Next 0 passes for location: London (51.5072 / 0.1276)

Sorry there are no passes over London.